User: anonymous   Login
Location: Newark
(40.4667°N, 5.6000°W)
Time: 01:19:27
(UTC+00:00)
Language:

SR - Orbit

View from above orbital plane
View from above orbital plane
View from above satellite
View from above satellite

Ground track
Ground track

The orbit data is extracted from the following two-line orbital elements,

1    46U 60007B   19324.19111112 -.00000017  00000-0  19828-4 0  9990
2    46  66.6906 254.6500 0217247 287.3057  70.4388 14.49258917108630
Epoch (UTC): 20 November 2019 04:35:12
Eccentricity: 0.0217247
inclination: 66.6906°
perigee height: 573 km
apogee height: 882 km
right ascension of ascending node: 254.6500°
argument of perigee: 287.3057°
revolutions per day: 14.49258917
mean anomaly at epoch: 70.4388°
orbit number at epoch: 10863

The dashed part of the orbit path shows where the satellite is in the earth's shadow,  

DLR